Retour au catalogue

BREEZE-M DEB

LostHEO
NORAD 38586·DEBRIS·🇷🇺 Russia

Lancé Mar 14, 2008 depuis Baikonur Cosmodrome

Loading…

Prochains Passages (prochaines 24 heures)

TLE

PériméSource: Space-Track

Époque: Feb 28, 2026, 04:25 UTC

1 38586U 08011AH  26059.18419435 -.00000048  00000-0  00000-0 0  9990
2 38586  49.7007 352.4808 6257844 246.6809  38.2022  2.91964199158696

Suivez BREEZE-M DEB en temps réel avec AllMySat

Download on the App Store